Weather Roundup
Issued by NWS

Home | Current Version | Previous Version | Graphics & Text | Print | Product List | Glossary Off
Versions: 1 2 3 4 5 6 7 8 9 10 11 12 13 14 15 16 17 18 19 20 21 22 23 24 25 26 27 28 29 30 31 32 33 34 35 36 37 38 39 40 41 42 43 44 45 46 47 48 49 50

000
NZUS93 KARX 290359
HRRWXR

CURRENT HOURLY OBSERVATIONS ACROSS
MUCH OF THE UPPER MISSISSIPPI VALLEY
NATIONAL WEATHER SERVICE LA CROSSE WI
1000 PM CST WED JAN 28 2015


...SOUTHEAST MINNESOTA...


CITY           SKY/WX    TMP DP  RH WIND       PRES   REMARKS
ROCHESTER      CLOUDY    31  28  89 E3        29.77F FOG
ROCHESTER/MAYO CLOUDY    32  28  84 CALM      29.79R
WINONA         CLOUDY    34  27  75 SE6       29.81F WCI  29
AUSTIN         CLOUDY    32  30  93 CALM      29.76F FOG
ALBERT LEA     MIX PCPN  34  34 100 N3        29.77S
DODGE CENTER   MIX PCPN  32  30  93 N3        29.78R
PRESTON        CLOUDY    31  27  88 CALM      29.77S
OWATONNA       MOCLDY    32  30  93 N3        29.80R FOG
FARIBAULT      CLOUDY    32  30  93 N5        29.81R FOG     WCI  27
$$

...ELSEWHERE IN MINNESOTA...


CITY           SKY/WX    TMP DP  RH WIND       PRES   REMARKS
MINNEAPOLIS    CLOUDY    31  29  92 VRB3      29.84R FOG
INTNL FALLS    CLOUDY    28  26  92 W5        29.82S FOG     WCI  23
DULUTH         FRZ DRZL  28  25  88 W7        29.80F FOG     WCI  21
RED WING       CLOUDY    30  28  93 CALM      29.81F FOG
REDWOOD FALLS  CLOUDY    33  32  96 NW8       29.88R FOG     WCI  26
MANKATO        CLOUDY    32  28  86 N8        29.82R WCI  25
WORTHINGTON    CLOUDY    34  30  86 N23G31    29.86R WCI  22
FAIRMONT       CLOUDY    34  28  80 NW15      29.80R WCI  24
$$

...SOUTHWEST WISCONSIN...


CITY           SKY/WX    TMP DP  RH WIND       PRES   REMARKS
LA CROSSE      CLOUDY    33  26  75 SE3       29.80F
PRAIRIE DU CHI PTCLDY    32  27  80 E6        29.77F WCI  26
BOSCOBEL       CLOUDY    34  27  75 VRB3      29.79F
LONE ROCK      NOT AVBL
PLATTEVILLE    CLOUDY    32  30  91 E12       29.76F WCI  23
FORT MC COY    CLOUDY    32  26  78 CALM      29.82F
VIROQUA        CLOUDY    31  28  89 SE6       29.78S WCI  25
WIS DELLS      NOT AVBL
$$

...ELSEWHERE IN WISCONSIN...


CITY           SKY/WX    TMP DP  RH WIND       PRES   REMARKS
MILWAUKEE      CLOUDY    32  22  66 S10       29.87F WCI  24
MADISON        CLOUDY    32  24  72 S15       29.81F WCI  22
GREEN BAY      CLOUDY    31  25  78 SE10      29.88F WCI  22
EAU CLAIRE     NOT AVBL
BLACK RVR FLS  CLOUDY    31  24  76 E3        29.81S
MEDFORD        CLOUDY    26  20  77 S6        29.81F WCI  20
WAUSAU         CLOUDY    27  21  78 SE8       29.81F WCI  19
WIS RAPIDS     CLOUDY    28  20  71 E5        29.84F WCI  23
MARSHFIELD     CLOUDY    28  21  75 E5        29.81F WCI  23
RICE LAKE      CLOUDY    28  25  86 CALM      29.84S FOG
$$

...NORTHEAST IOWA...


CITY           SKY/WX    TMP DP  RH WIND       PRES   REMARKS
DECORAH        MOCLDY    30  28  93 E6        29.75S WCI  24
MASON CITY     CLOUDY    33  31  92 N8        29.76S FOG     WCI  26
CHARLES CITY   CLOUDY    32  32 100 NE6       29.75S WCI  26
OELWEIN        CLEAR     32  30  93 SE12      29.72S WCI  23
$$

...ELSEWHERE IN IOWA...


CITY           SKY/WX    TMP DP  RH WIND       PRES   REMARKS
DES MOINES     PTCLDY    38  32  79 N6        29.69R WCI  33
IOWA CITY      CLEAR     35  31  85 E5        29.71F WCI  31
FORT DODGE     CLOUDY    34  30  86 N9G16     29.77R WCI  26
$$

...NORTHERN ILLINOIS...


CITY           SKY/WX    TMP DP  RH WIND       PRES   REMARKS
CHICAGO-OHARE  CLOUDY    33  21  61 S14       29.88F WCI  23
CHICAGO-MIDWAY CLOUDY    35  21  56 S15G23    29.89F WCI  25
MOLINE         MOCLDY    37  30  75 SE9       29.73F WCI  30
ROCKFORD       CLOUDY    33  25  72 S17G24    29.84F WCI  22
PEORIA         CLOUDY    38  31  76 S17       29.82F WCI  28
$$

NOTE: "FAIR" INDICATES FEW OR NO CLOUDS BELOW 12,000 FEET WITH NO
SIGNIFICANT WEATHER AND/OR OBSTRUCTIONS TO VISIBILITY. WIND
SPEEDS ARE IN MILES-PER-HOUR.



USA.gov is the U.S. government's official web portal to all federal, state and local government web resources and services.